Time,TemperatureF,DewpointF,PressureIn,WindDirection,WindDirectionDegrees,WindSpeedMPH,WindSpeedGustMPH,Humidity,HourlyPrecipIn,Conditions,Clouds,dailyrainin,SoftwareType,DateUTC
2013-01-14 00:10:00,49.6,48.0,30.06,NW,309,3.0,-999.0,94,-99.99,,,1.21,weatherlink.com 1.10,2013-01-14 06:10:00,
2013-01-14 00:25:00,48.6,47.0,30.05,North,355,2.0,-999.0,93,-99.99,,,1.21,weatherlink.com 1.10,2013-01-14 06:25:00,
2013-01-14 00:40:00,47.8,46.0,30.06,North,9,2.0,-999.0,93,-99.99,,,1.22,weatherlink.com 1.10,2013-01-14 06:40:00,
2013-01-14 00:55:00,47.3,46.0,30.06,NE,34,2.0,-999.0,94,-99.99,,,1.22,weatherlink.com 1.10,2013-01-14 06:55:00,
2013-01-14 01:10:00,47.0,45.0,30.07,West,263,2.0,-999.0,94,-99.99,,,0.00,weatherlink.com 1.10,2013-01-14 07:10:00,
2013-01-14 01:25:00,46.2,44.0,30.07,NNE,27,0.0,-999.0,93,-99.99,,,0.01,weatherlink.com 1.10,2013-01-14 07:25:00,
2013-01-14 01:40:00,45.7,44.0,30.08,NNW,336,0.0,-999.0,94,-99.99,,,0.01,weatherlink.com 1.10,2013-01-14 07:40:00,
2013-01-14 01:55:00,45.2,44.0,30.08,NW,307,2.0,-999.0,95,-99.99,,,0.02,weatherlink.com 1.10,2013-01-14 07:55:00,
2013-01-14 02:10:00,44.9,44.0,30.08,NE,35,3.0,-999.0,95,-99.99,,,0.03,weatherlink.com 1.10,2013-01-14 08:10:00,
2013-01-14 02:25:00,44.9,44.0,30.08,NNW,347,2.0,-999.0,95,-99.99,,,0.03,weatherlink.com 1.10,2013-01-14 08:25:00,
2013-01-14 02:40:00,44.9,44.0,30.07,NNE,21,0.0,-999.0,95,-99.99,,,0.03,weatherlink.com 1.10,2013-01-14 08:40:00,
2013-01-14 02:55:00,45.0,44.0,30.06,NE,36,0.0,-999.0,95,-99.99,,,0.03,weatherlink.com 1.10,2013-01-14 08:55:00,
2013-01-14 03:10:00,45.0,44.0,30.06,North,5,0.0,-999.0,95,-99.99,,,0.03,weatherlink.com 1.10,2013-01-14 09:10:00,
2013-01-14 03:25:00,45.0,44.0,30.07,NNE,13,1.0,-999.0,95,-99.99,,,0.03,weatherlink.com 1.10,2013-01-14 09:25:00,
2013-01-14 03:40:00,44.9,44.0,30.06,NNE,27,0.0,-999.0,95,-99.99,,,0.03,weatherlink.com 1.10,2013-01-14 09:40:00,
2013-01-14 03:55:00,44.6,43.0,30.07,NNE,24,2.0,-999.0,94,-99.99,,,0.04,weatherlink.com 1.10,2013-01-14 09:55:00,
2013-01-14 04:10:00,44.5,43.0,30.07,NE,53,1.0,-999.0,95,-99.99,,,0.04,weatherlink.com 1.10,2013-01-14 10:10:00,
2013-01-14 04:25:00,44.3,43.0,30.07,NE,36,4.0,-999.0,95,-99.99,,,0.05,weatherlink.com 1.10,2013-01-14 10:25:00,
2013-01-14 04:40:00,44.3,43.0,30.07,NE,34,2.0,-999.0,95,-99.99,,,0.05,weatherlink.com 1.10,2013-01-14 10:40:00,
2013-01-14 04:56:00,44.3,43.0,30.07,North,9,1.0,-999.0,95,-99.99,,,0.06,weatherlink.com 1.10,2013-01-14 10:56:00,
2013-01-14 05:11:00,44.2,43.0,30.07,NNE,31,5.0,-999.0,95,-99.99,,,0.07,weatherlink.com 1.10,2013-01-14 11:11:00,
2013-01-14 05:26:00,44.2,43.0,30.09,North,355,1.0,-999.0,95,-99.99,,,0.07,weatherlink.com 1.10,2013-01-14 11:26:00,
2013-01-14 05:41:00,44.0,43.0,30.09,North,5,5.0,-999.0,95,-99.99,,,0.09,weatherlink.com 1.10,2013-01-14 11:41:00,
2013-01-14 05:56:00,43.9,43.0,30.10,NNE,19,1.0,-999.0,95,-99.99,,,0.11,weatherlink.com 1.10,2013-01-14 11:56:00,
2013-01-14 06:11:00,43.9,43.0,30.10,NNE,14,5.0,-999.0,95,-99.99,,,0.12,weatherlink.com 1.10,2013-01-14 12:11:00,
2013-01-14 06:26:00,43.8,43.0,30.12,NE,38,1.0,-999.0,95,-99.99,,,0.13,weatherlink.com 1.10,2013-01-14 12:26:00,
2013-01-14 06:41:00,43.8,43.0,30.12,North,9,0.0,-999.0,95,-99.99,,,0.13,weatherlink.com 1.10,2013-01-14 12:41:00,
2013-01-14 06:56:00,43.8,43.0,30.13,NNE,23,1.0,-999.0,96,-99.99,,,0.13,weatherlink.com 1.10,2013-01-14 12:56:00,
2013-01-14 07:11:00,43.8,43.0,30.14,NNW,333,4.0,-999.0,96,-99.99,,,0.13,weatherlink.com 1.10,2013-01-14 13:11:00,
2013-01-14 07:26:00,43.6,43.0,30.15,North,360,1.0,-999.0,96,-99.99,,,0.13,weatherlink.com 1.10,2013-01-14 13:26:00,
2013-01-14 07:41:00,43.4,42.0,30.15,NE,40,0.0,-999.0,96,-99.99,,,0.16,weatherlink.com 1.10,2013-01-14 13:41:00,
2013-01-14 07:56:00,43.3,42.0,30.15,NNE,17,1.0,-999.0,96,-99.99,,,0.18,weatherlink.com 1.10,2013-01-14 13:56:00,
2013-01-14 08:11:00,43.3,42.0,30.16,NNE,29,1.0,-999.0,96,-99.99,,,0.18,weatherlink.com 1.10,2013-01-14 14:11:00,
2013-01-14 08:26:00,43.2,42.0,30.14,ENE,65,5.0,-999.0,96,-99.99,,,0.19,weatherlink.com 1.10,2013-01-14 14:26:00,
2013-01-14 08:41:00,43.3,42.0,30.16,NNE,18,0.0,-999.0,96,-99.99,,,0.23,weatherlink.com 1.10,2013-01-14 14:41:00,
2013-01-14 08:56:00,43.1,42.0,30.17,NNE,30,5.0,-999.0,96,-99.99,,,0.29,weatherlink.com 1.10,2013-01-14 14:56:00,
2013-01-14 09:11:00,43.0,42.0,30.16,NNE,32,4.0,-999.0,96,-99.99,,,0.36,weatherlink.com 1.10,2013-01-14 15:11:00,
2013-01-14 09:27:00,42.9,42.0,30.16,NNE,33,1.0,-999.0,96,-99.99,,,0.41,weatherlink.com 1.10,2013-01-14 15:27:00,
2013-01-14 09:41:00,42.8,42.0,30.15,NNE,28,6.0,-999.0,96,-99.99,,,0.42,weatherlink.com 1.10,2013-01-14 15:41:00,
2013-01-14 10:13:00,42.8,42.0,30.15,NE,40,6.0,-999.0,96,-99.99,,,0.49,weatherlink.com 1.10,2013-01-14 16:13:00,
2013-01-14 10:26:00,42.7,42.0,30.14,NNE,15,1.0,-999.0,96,-99.99,,,0.52,weatherlink.com 1.10,2013-01-14 16:26:00,
2013-01-14 10:41:00,42.8,42.0,30.13,ENE,57,7.0,-999.0,96,-99.99,,,0.54,weatherlink.com 1.10,2013-01-14 16:41:00,
2013-01-14 10:56:00,42.9,42.0,30.12,NNE,22,4.0,-999.0,96,-99.99,,,0.56,weatherlink.com 1.10,2013-01-14 16:56:00,
2013-01-14 11:11:00,43.1,42.0,30.11,NNE,30,2.0,-999.0,96,-99.99,,,0.58,weatherlink.com 1.10,2013-01-14 17:11:00,
2013-01-14 11:26:00,43.2,42.0,30.12,North,5,2.0,-999.0,96,-99.99,,,0.60,weatherlink.com 1.10,2013-01-14 17:26:00,
2013-01-14 11:41:00,43.2,42.0,30.11,ENE,57,1.0,-999.0,96,-99.99,,,0.61,weatherlink.com 1.10,2013-01-14 17:41:00,
2013-01-14 11:56:00,43.3,42.0,30.11,NNE,24,2.0,-999.0,96,-99.99,,,0.65,weatherlink.com 1.10,2013-01-14 17:56:00,
2013-01-14 12:11:00,43.4,42.0,30.10,NNE,16,0.0,-999.0,96,-99.99,,,0.66,weatherlink.com 1.10,2013-01-14 18:11:00,
2013-01-14 12:26:00,43.6,43.0,30.09,NE,51,1.0,-999.0,96,-99.99,,,0.69,weatherlink.com 1.10,2013-01-14 18:26:00,
2013-01-14 12:41:00,43.6,43.0,30.09,NE,53,1.0,-999.0,96,-99.99,,,0.70,weatherlink.com 1.10,2013-01-14 18:41:00,
2013-01-14 12:56:00,43.7,43.0,30.08,NE,37,6.0,-999.0,96,-99.99,,,0.71,weatherlink.com 1.10,2013-01-14 18:56:00,
2013-01-14 13:11:00,44.0,43.0,30.08,North,5,0.0,-999.0,97,-99.99,,,0.71,weatherlink.com 1.10,2013-01-14 19:11:00,
2013-01-14 13:26:00,44.0,43.0,30.08,NE,42,5.0,-999.0,97,-99.99,,,0.71,weatherlink.com 1.10,2013-01-14 19:26:00,
2013-01-14 13:41:00,44.3,43.0,30.07,ENE,73,0.0,-999.0,96,-99.99,,,0.72,weatherlink.com 1.10,2013-01-14 19:41:00,
2013-01-14 13:56:00,44.6,44.0,30.08,NE,36,0.0,-999.0,97,-99.99,,,0.72,weatherlink.com 1.10,2013-01-14 19:56:00,
2013-01-14 14:11:00,44.8,44.0,30.07,NNE,17,1.0,-999.0,97,-99.99,,,0.72,weatherlink.com 1.10,2013-01-14 20:11:00,
2013-01-14 14:26:00,44.8,44.0,30.09,NW,313,0.0,-999.0,96,-99.99,,,0.72,weatherlink.com 1.10,2013-01-14 20:26:00,
2013-01-14 14:41:00,44.8,44.0,30.12,NNE,24,2.0,-999.0,97,-99.99,,,0.72,weatherlink.com 1.10,2013-01-14 20:41:00,
2013-01-14 14:56:00,44.5,44.0,30.14,NW,326,1.0,-999.0,96,-99.99,,,0.73,weatherlink.com 1.10,2013-01-14 20:56:00,
2013-01-14 15:11:00,43.9,43.0,30.14,North,355,4.0,-999.0,96,-99.99,,,0.73,weatherlink.com 1.10,2013-01-14 21:11:00,
2013-01-14 15:26:00,43.2,42.0,30.15,North,9,1.0,-999.0,95,-99.99,,,0.73,weatherlink.com 1.10,2013-01-14 21:26:00,
2013-01-14 15:57:00,40.8,39.0,30.17,NE,35,2.0,-999.0,94,-99.99,,,0.74,weatherlink.com 1.10,2013-01-14 21:57:00,
2013-01-14 16:12:00,40.2,39.0,30.18,NNE,29,2.0,-999.0,94,-99.99,,,0.74,weatherlink.com 1.10,2013-01-14 22:12:00,
2013-01-14 16:27:00,39.8,38.0,30.19,NNE,32,2.0,-999.0,94,-99.99,,,0.74,weatherlink.com 1.10,2013-01-14 22:27:00,
2013-01-14 16:42:00,39.4,38.0,30.20,NNW,338,3.0,-999.0,94,-99.99,,,0.74,weatherlink.com 1.10,2013-01-14 22:42:00,
2013-01-14 16:57:00,38.7,37.0,30.21,North,360,2.0,-999.0,94,-99.99,,,0.74,weatherlink.com 1.10,2013-01-14 22:57:00,
2013-01-14 17:12:00,38.1,37.0,30.21,NNE,30,3.0,-999.0,94,-99.99,,,0.74,weatherlink.com 1.10,2013-01-14 23:12:00,
2013-01-14 17:27:00,38.2,37.0,30.22,NNE,32,5.0,-999.0,95,-99.99,,,0.75,weatherlink.com 1.10,2013-01-14 23:27:00,
2013-01-14 17:42:00,38.2,37.0,30.21,NNE,30,3.0,-999.0,95,-99.99,,,0.76,weatherlink.com 1.10,2013-01-14 23:42:00,
2013-01-14 17:57:00,38.4,37.0,30.21,NNE,24,1.0,-999.0,96,-99.99,,,0.77,weatherlink.com 1.10,2013-01-14 23:57:00,
2013-01-14 18:12:00,38.7,38.0,30.21,NNE,29,3.0,-999.0,96,-99.99,,,0.77,weatherlink.com 1.10,2013-01-15 00:12:00,
2013-01-14 18:27:00,39.1,38.0,30.21,North,9,2.0,-999.0,96,-99.99,,,0.77,weatherlink.com 1.10,2013-01-15 00:27:00,
2013-01-14 18:42:00,39.3,38.0,30.20,NNE,18,4.0,-999.0,96,-99.99,,,0.77,weatherlink.com 1.10,2013-01-15 00:42:00,
2013-01-14 18:57:00,39.3,38.0,30.20,NNE,27,6.0,-999.0,96,-99.99,,,0.78,weatherlink.com 1.10,2013-01-15 00:57:00,
2013-01-14 19:12:00,39.3,38.0,30.19,NE,38,1.0,-999.0,96,-99.99,,,0.79,weatherlink.com 1.10,2013-01-15 01:12:00,
2013-01-14 19:27:00,39.2,38.0,30.20,NNE,22,3.0,-999.0,96,-99.99,,,0.79,weatherlink.com 1.10,2013-01-15 01:27:00,
2013-01-14 19:42:00,39.2,38.0,30.20,NNE,17,5.0,-999.0,96,-99.99,,,0.80,weatherlink.com 1.10,2013-01-15 01:42:00,
2013-01-14 19:57:00,39.3,38.0,30.20,NE,42,3.0,-999.0,96,-99.99,,,0.81,weatherlink.com 1.10,2013-01-15 01:57:00,
2013-01-14 20:12:00,39.4,38.0,30.20,NNE,30,0.0,-999.0,96,-99.99,,,0.81,weatherlink.com 1.10,2013-01-15 02:12:00,
2013-01-14 20:27:00,39.3,38.0,30.18,NE,53,7.0,-999.0,96,-99.99,,,0.82,weatherlink.com 1.10,2013-01-15 02:27:00,
2013-01-14 20:42:00,39.1,38.0,30.18,NNE,24,4.0,-999.0,96,-99.99,,,0.83,weatherlink.com 1.10,2013-01-15 02:42:00,
2013-01-14 20:57:00,39.1,38.0,30.17,NE,55,4.0,-999.0,96,-99.99,,,0.83,weatherlink.com 1.10,2013-01-15 02:57:00,
2013-01-14 21:27:00,39.3,38.0,30.15,NE,39,3.0,-999.0,96,-99.99,,,0.86,weatherlink.com 1.10,2013-01-15 03:27:00,
2013-01-14 21:42:00,39.4,38.0,30.14,ENE,63,3.0,-999.0,96,-99.99,,,0.86,weatherlink.com 1.10,2013-01-15 03:42:00,
2013-01-14 21:57:00,39.5,39.0,30.15,NE,44,2.0,-999.0,96,-99.99,,,0.87,weatherlink.com 1.10,2013-01-15 03:57:00,
2013-01-14 22:12:00,39.6,39.0,30.14,ENE,67,1.0,-999.0,96,-99.99,,,0.87,weatherlink.com 1.10,2013-01-15 04:12:00,
2013-01-14 22:27:00,39.7,39.0,30.14,NE,41,2.0,-999.0,96,-99.99,,,0.88,weatherlink.com 1.10,2013-01-15 04:27:00,
2013-01-14 22:42:00,39.8,39.0,30.14,NE,41,0.0,-999.0,96,-99.99,,,0.89,weatherlink.com 1.10,2013-01-15 04:42:00,
2013-01-14 22:57:00,40.0,39.0,30.12,ENE,76,3.0,-999.0,97,-99.99,,,0.90,weatherlink.com 1.10,2013-01-15 04:57:00,
2013-01-14 23:12:00,40.1,39.0,30.11,ENE,74,1.0,-999.0,97,-99.99,,,0.91,weatherlink.com 1.10,2013-01-15 05:12:00,
2013-01-14 23:27:00,40.4,40.0,30.12,ENE,74,1.0,-999.0,97,-99.99,,,0.93,weatherlink.com 1.10,2013-01-15 05:27:00,
2013-01-14 23:57:00,41.3,41.0,30.11,NE,51,2.0,-999.0,97,-99.99,,,0.94,weatherlink.com 1.10,2013-01-15 05:57:00,